Location: Friaudour
(46.0460°N, 1.2873°E)
Time: 08:04:54
(UTC+00:00)

NOSS 2-1 (E) - Pass Details

Date: 14 July 2020
Orbit: 446 x 1757 km, 63.3° (Epoch: 02 August)

Event Time Altitude Azimuth Distance (km) Brightness Sun altitude
Rises 01:20:11 0° 318° (NW) 3,129 7.6 -20.0°
Reaches altitude 10° 01:22:15 10° 316° (NW) 2,353 6.8 -19.8°
Maximum altitude 01:27:39 67° 235° (SW) 1,069 4.5 -19.5°
Enters shadow 01:34:25 13° 156° (SSE) 2,960 6.6 -19.1°
